| time (UTC) | temp F | wind direction | speed MPH | gust MPH | rain 1hr in | rain 24hr in | rain mn in | humidity % | barometer mb |
| 20260505073524 | 69 | 344 | 2.0 | 7.0 | 0.00 | 0.00 | 0.00 | 43 | 1013.8 |
| 20260505072519 | 67 | 346 | 0.0 | 1.0 | 0.00 | 0.00 | 0.00 | 45 | 1013.8 |
| 20260505071535 | 66 | 88 | 3.0 | 7.0 | 0.00 | 0.00 | 0.00 | 48 | 1013.8 |
| 20260505070551 | 67 | 69 | 3.0 | 10.0 | 0.00 | 0.00 | 0.00 | 46 | 1013.8 |
| 20260505065528 | 66 | 74 | 4.0 | 7.0 | 0.00 | 0.00 | 0.00 | 48 | 1013.8 |
| 20260505064523 | 65 | 54 | 7.0 | 15.0 | 0.00 | 0.00 | 0.00 | 51 | 1013.7 |
| 20260505063518 | 65 | 304 | 3.0 | 7.0 | 0.00 | 0.00 | 0.00 | 49 | 1013.5 |
| 20260505062535 | 64 | 328 | 1.0 | 3.0 | 0.00 | 0.00 | 0.00 | 50 | 1013.7 |
| 20260505061531 | 61 | 303 | 4.0 | 9.0 | 0.00 | 0.00 | 0.00 | 56 | 1013.8 |
| 20260505060547 | 60 | 308 | 4.0 | 11.0 | 0.00 | 0.00 | 0.00 | 58 | 1013.8 |
| 20260505055523 | 60 | 320 | 3.0 | 10.0 | 0.00 | 0.00 | 0.00 | 58 | 1013.7 |
| 20260505054519 | 59 | 319 | 3.0 | 10.0 | 0.00 | 0.00 | 0.00 | 62 | 1013.5 |
| 20260505053536 | 60 | 324 | 4.0 | 10.0 | 0.00 | 0.00 | 0.00 | 62 | 1013.6 |
| 20260505052531 | 62 | 77 | 1.0 | 2.0 | 0.00 | 0.00 | 0.00 | 56 | 1013.5 |
| 20260505051528 | 61 | 356 | 1.0 | 4.0 | 0.00 | 0.00 | 0.00 | 55 | 1013.4 |
| 20260505050523 | 58 | 52 | 1.0 | 2.0 | 0.00 | 0.00 | 0.00 | 62 | 1013.5 |
| 20260505041523 | 57 | 287 | 1.0 | 4.0 | 0.00 | 0.00 | 0.00 | 60 | 1013.4 |
| 20260505040519 | 56 | 261 | 1.0 | 4.0 | 0.00 | 0.00 | 0.00 | 63 | 1013.5 |
| 20260505035555 | 55 | 294 | 4.0 | 8.0 | 0.00 | 0.00 | 0.00 | 63 | 1013.4 |
| 20260505034532 | 54 | 299 | 5.0 | 11.0 | 0.00 | 0.00 | 0.00 | 67 | 1013.4 |
| 20260505033528 | 54 | 305 | 6.0 | 16.0 | 0.00 | 0.00 | 0.00 | 68 | 1013.5 |
| 20260505032524 | 55 | 322 | 5.0 | 10.0 | 0.00 | 0.00 | 0.00 | 63 | 1013.3 |
| 20260505031520 | 55 | 294 | 6.0 | 13.0 | 0.00 | 0.00 | 0.00 | 64 | 1013.3 |
| 20260505030536 | 55 | 301 | 7.0 | 11.0 | 0.00 | 0.00 | 0.00 | 64 | 1013.5 |
| 20260505025533 | 55 | 300 | 6.0 | 11.0 | 0.00 | 0.00 | 0.00 | 65 | 1013.5 |
| 20260505024549 | 55 | 315 | 7.0 | 13.0 | 0.00 | 0.00 | 0.00 | 67 | 1013.5 |
| 20260505023524 | 55 | 306 | 5.0 | 10.0 | 0.00 | 0.00 | 0.00 | 63 | 1013.4 |
| 20260505022521 | 54 | 271 | 3.0 | 7.0 | 0.00 | 0.00 | 0.00 | 68 | 1013.6 |
| 20260505021517 | 54 | 252 | 1.0 | 4.0 | 0.00 | 0.00 | 0.00 | 67 | 1013.9 |
| 20260505020553 | 54 | 296 | 2.0 | 11.0 | 0.00 | 0.00 | 0.00 | 69 | 1013.8 |
| 20260505015549 | 54 | 274 | 7.0 | 15.0 | 0.00 | 0.00 | 0.00 | 68 | 1013.6 |
| 20260505014525 | 55 | 304 | 6.0 | 14.0 | 0.00 | 0.00 | 0.00 | 66 | 1013.6 |
| 20260505013521 | 55 | 283 | 2.0 | 9.0 | 0.00 | 0.00 | 0.00 | 65 | 1013.5 |
| 20260505012517 | 55 | 282 | 2.0 | 4.0 | 0.00 | 0.00 | 0.00 | 64 | 1013.6 |
| 20260505011533 | 56 | 291 | 2.0 | 7.0 | 0.00 | 0.00 | 0.00 | 60 | 1013.7 |
| 20260505010530 | 56 | 194 | 0.0 | 1.0 | 0.00 | 0.00 | 0.00 | 60 | 1013.6 |
| 20260505005525 | 56 | 12 | 0.0 | 2.0 | 0.00 | 0.00 | 0.00 | 58 | 1013.5 |
| 20260505004521 | 57 | 297 | 1.0 | 4.0 | 0.00 | 0.00 | 0.00 | 57 | 1013.5 |
| 20260505003517 | 56 | 267 | 1.0 | 3.0 | 0.00 | 0.00 | 0.00 | 57 | 1013.5 |
| 20260505002614 | 57 | 304 | 1.0 | 6.0 | 0.00 | 0.00 | 0.00 | 56 | 1013.6 |
| 20260505001530 | 57 | 309 | 2.0 | 4.0 | 0.00 | 0.00 | 0.00 | 56 | 1013.7 |
| 20260505000525 | 57 | 279 | 1.0 | 4.0 | 0.00 | 0.00 | 0.00 | 57 | 1013.8 |
| 20260504235521 | 57 | 312 | 1.0 | 6.0 | 0.00 | 0.00 | 0.00 | 56 | 1013.7 |
| 20260504234518 | 57 | 240 | 0.0 | 2.0 | 0.00 | 0.00 | 0.00 | 56 | 1013.8 |
| 20260504233533 | 58 | 273 | 1.0 | 6.0 | 0.00 | 0.00 | 0.00 | 54 | 1014.1 |
| 20260504232529 | 57 | 250 | 1.0 | 3.0 | 0.00 | 0.00 | 0.00 | 55 | 1014.0 |
| 20260504231525 | 57 | 290 | 1.0 | 6.0 | 0.00 | 0.00 | 0.00 | 55 | 1014.1 |
| 20260504230521 | 57 | 268 | 1.0 | 6.0 | 0.00 | 0.00 | 0.00 | 55 | 1014.1 |
| 20260504225517 | 57 | 105 | 0.0 | 1.0 | 0.00 | 0.00 | 0.00 | 55 | 1014.3 |
| 20260504224533 | 58 | 245 | 1.0 | 3.0 | 0.00 | 0.00 | 0.00 | 53 | 1014.2 |
| 20260504223529 | 57 | 258 | 0.0 | 2.0 | 0.00 | 0.00 | 0.00 | 55 | 1014.3 |
| 20260504222545 | 56 | 270 | 0.0 | 2.0 | 0.00 | 0.00 | 0.00 | 56 | 1014.4 |
| 20260504221521 | 57 | 243 | 1.0 | 3.0 | 0.00 | 0.00 | 0.00 | 55 | 1014.4 |
| 20260504220517 | 58 | 202 | 0.0 | 0.0 | 0.00 | 0.00 | 0.00 | 55 | 1014.5 |
| 20260504215022 | 57 | 272 | 1.0 | 2.0 | 0.00 | 0.00 | 0.00 | 56 | 1014.5 |
| 20260504214018 | 57 | 232 | 0.0 | 3.0 | 0.00 | 0.00 | 0.00 | 56 | 1014.5 |
| 20260504213034 | 57 | 278 | 0.0 | 1.0 | 0.00 | 0.00 | 0.00 | 56 | 1014.5 |
| 20260504212049 | 58 | 250 | 0.0 | 1.0 | 0.00 | 0.00 | 0.00 | 54 | 1014.3 |
| 20260504211046 | 60 | 232 | 0.0 | 2.0 | 0.00 | 0.00 | 0.00 | 50 | 1014.5 |
| 20260504210021 | 60 | 255 | 1.0 | 3.0 | 0.00 | 0.00 | 0.00 | 48 | 1014.4 |
| 20260504205018 | 59 | 238 | 0.0 | 3.0 | 0.00 | 0.00 | 0.00 | 52 | 1014.5 |
| 20260504204033 | 59 | 260 | 2.0 | 4.0 | 0.00 | 0.00 | 0.00 | 50 | 1014.3 |
| 20260504203029 | 57 | 247 | 1.0 | 3.0 | 0.00 | 0.00 | 0.00 | 55 | 1014.4 |
| 20260504202025 | 58 | 242 | 0.0 | 2.0 | 0.00 | 0.00 | 0.00 | 53 | 1014.3 |
| 20260504201021 | 57 | 223 | 0.0 | 1.0 | 0.00 | 0.00 | 0.00 | 56 | 1014.3 |
| 20260504200037 | 56 | 229 | 0.0 | 2.0 | 0.00 | 0.00 | 0.00 | 60 | 1014.2 |
| 20260504195058 | 56 | 277 | 0.0 | 0.0 | 0.00 | 0.00 | 0.00 | 66 | 1014.2 |
| 20260504194048 | 56 | 271 | 0.0 | 1.0 | 0.00 | 0.00 | 0.00 | 66 | 1014.3 |
| 20260504193023 | 57 | 227 | 0.0 | 0.0 | 0.00 | 0.00 | 0.00 | 66 | 1014.3 |
| 20260504192018 | 58 | 227 | 0.0 | 0.0 | 0.00 | 0.00 | 0.00 | 66 | 1014.4 |
| 20260504191035 | 59 | 227 | 0.0 | 0.0 | 0.00 | 0.00 | 0.00 | 65 | 1014.5 |
| 20260504190031 | 60 | 228 | 0.0 | 1.0 | 0.00 | 0.00 | 0.00 | 63 | 1014.5 |
| 20260504185027 | 62 | 255 | 0.0 | 0.0 | 0.00 | 0.00 | 0.00 | 60 | 1014.4 |
| 20260504184023 | 63 | 4 | 0.0 | 1.0 | 0.00 | 0.00 | 0.00 | 50 | 1014.2 |
| 20260504183019 | 64 | 283 | 1.0 | 3.0 | 0.00 | 0.00 | 0.00 | 44 | 1013.9 |
| 20260504182035 | 65 | 319 | 4.0 | 7.0 | 0.00 | 0.00 | 0.00 | 43 | 1013.7 |
| 20260504181031 | 67 | 28 | 2.0 | 4.0 | 0.00 | 0.00 | 0.00 | 38 | 1013.5 |
| 20260504180027 | 68 | 213 | 3.0 | 8.0 | 0.00 | 0.00 | 0.00 | 33 | 1013.3 |
| 20260504175023 | 68 | 247 | 4.0 | 10.0 | 0.00 | 0.00 | 0.00 | 34 | 1013.1 |
| 20260504174039 | 68 | 251 | 6.0 | 13.0 | 0.00 | 0.00 | 0.00 | 34 | 1013.1 |
| 20260504173035 | 68 | 255 | 5.0 | 10.0 | 0.00 | 0.00 | 0.00 | 33 | 1013.1 |
| 20260504172034 | 69 | 245 | 4.0 | 8.0 | 0.00 | 0.00 | 0.00 | 33 | 1013.1 |
| 20260504171027 | 69 | 241 | 5.0 | 10.0 | 0.00 | 0.00 | 0.00 | 32 | 1013.0 |
| 20260504151018 | 72 | 273 | 5.0 | 10.0 | 0.00 | 0.00 | 0.00 | 30 | 1013.0 |
| 20260504141034 | 70 | 276 | 4.0 | 10.0 | 0.00 | 0.00 | 0.00 | 31 | 1013.6 |
| 20260504081047 | 61 | 289 | 4.0 | 9.0 | 0.00 | 0.00 | 0.00 | 37 | 1017.5 |